Location: Fours
(44.3167°N, 6.7000°E)
Time: 09:11:14
(UTC+00:00)

IRS-1C Rocket - Pass Details

Date: 30 November 2020
Orbit: 800 x 806 km, 99.0° (Epoch: 25 January)

Event Time Altitude Azimuth Distance (km) Brightness Sun altitude
Rises 18:02:29 0° 172° (S) 3,306 7.3 -22.1°
Reaches altitude 10° 18:04:50 10° 175° (S) 2,380 6.6 -22.5°
Maximum altitude 18:10:03 65° 257° (WSW) 885 4.5 -23.4°
Drops below altitude 10° 18:15:20 10° 340° (NNW) 2,397 6.7 -24.3°
Sets 18:17:42 0° 343° (NNW) 3,331 7.4 -24.8°
